Content
SEND FEEDBACK

Daily
Averages
Monthly
Summary
United States of America

POTTS JUNCTION, GUAM


Home > North America > United States > Guam
Elevation: 360 feet     Latitude: 13 33N     Longitude: 144 50E

WEATHER
 
SELECT A DAY
Number of Records: 215,487;   Date Range: 1/1/95 - 12/16/14
 
SHARE

PRINT THIS DATA

[ ← Previous Day ]
WEATHER ALMANAC - JANUARY 21, 2013
[ Next Day → ]
[ °C ]   °F
Weather ElementAverageHighLow
Temperature75.9 °F79 °F (2:54 pm)73.4 °F (6:30 am)
Dewpoint72.8 °F75.2 °F (1:16 am)70 °F (4:54 pm)
Humidity90.5 %100 % (1:16 am)76 % (4:54 pm)
Barometer29.92 in29.97 in (9:00 am)29.86 in (2:54 pm)
Wind Speed20.3 mph31.1 mph (4:02 am)
Wind Gust38 mph (4:02 am)
Weather ElementAverage
Visibility6.5 mi
Wind DirectionNE (43 °)

Weather ElementTotal
Precipitation0.42 in
Cooling Degree Days11.2 (Base 65)
Growing Degree Days26.2 (Base 50)
Averaged from 47 records on January 21, 2013
WEATHER CONDITIONS BREAKOUT
WIND DIRECTION BREAKOUT
WEATHER BY HOUR - JANUARY 21, 2013
[ °C ]   °F
Local TimeTemperatureDewpointHumidityBarometerVisibilityWind DirectionWind SpeedGust SpeedPrecipitationEventsConditions
1:16 AM75.2 °F75.2 °F100 %29.92 in6.0 miNE (40°)18.4 mph25.3 mph0.00 inRainLight Rain
1:54 AM75.9 °F73.9 °F94 %29.89 in9.0 miNE (50°)19.6 mph31.1 mph0.00 inOvercast
2:54 AM75.0 °F75.0 °F100 %29.88 in4.0 miENE (60°)18.4 mph24.2 mph0.06 inRainRain
3:01 AM75.2 °F75.2 °F100 %29.89 in2.5 miENE (60°)19.6 mph28.8 mph0.00 inRainRain
3:20 AM75.2 °F75.2 °F100 %29.88 in5.0 miNE (40°)17.3 mph25.3 mph0.03 inRainRain
3:54 AM75.0 °F73.9 °F96 %29.87 in7.0 miNE (50°)18.4 mph26.5 mph0.04 inRainRain
4:02 AM75.2 °F73.4 °F94 %29.89 in3.0 miNE (50°)31.1 mph38.0 mph0.00 inRainRain
4:09 AM75.2 °F73.4 °F94 %29.89 in2.5 miENE (60°)20.7 mph38.0 mph0.01 inRainRain
4:13 AM75.2 °F73.4 °F94 %29.89 in3.0 miNE (50°)19.6 mph0.01 inRainRain
4:25 AM75.2 °F73.4 °F94 %29.89 in3.0 miNE (50°)19.6 mph31.1 mph0.02 inRainRain
4:34 AM75.2 °F73.4 °F94 %29.89 in4.0 miENE (60°)17.3 mph27.6 mph0.02 inRainRain
4:40 AM75.2 °F73.4 °F94 %29.90 in2.5 miNE (40°)17.3 mph26.5 mph0.04 inRainRain
4:54 AM75.0 °F73.9 °F96 %29.88 in4.0 miNE (50°)17.3 mph0.06 inRainRain
5:54 AM75.0 °F73.9 °F96 %29.89 in6.0 miNE (50°)19.6 mph25.3 mph0.06 inRainRain
6:21 AM75.2 °F73.4 °F94 %29.92 in6.0 miNE (40°)20.7 mph27.6 mph0.01 inRainRain
6:30 AM73.4 °F73.4 °F100 %29.92 in4.0 miNE (40°)19.6 mph29.9 mph0.01 inRainRain
6:54 AM75.0 °F73.9 °F96 %29.91 in7.0 miNE (40°)21.9 mph28.8 mph0.01 inRainRain
7:54 AM75.0 °F73.9 °F96 %29.94 in6.0 miNE (40°)21.9 mph29.9 mph0.01 inRainRain
8:34 AM75.2 °F73.4 °F94 %29.96 in3.0 miNE (40°)18.4 mph27.6 mph0.00 inRainLight Rain
8:54 AM75.0 °F73.9 °F96 %29.95 in5.0 miNE (40°)16.1 mph28.8 mph0.00 inRainLight Rain
9:00 AM75.2 °F73.4 °F94 %29.97 in3.0 miNNE (30°)20.7 mph26.5 mph0.00 inRainLight Rain
9:02 AM75.2 °F73.4 °F94 %29.97 in2.5 miNE (40°)21.9 mph27.6 mph0.01 inRainLight Rain
9:18 AM75.2 °F73.4 °F94 %29.97 in4.0 miNE (40°)20.7 mph27.6 mph0.01 inRainLight Rain
9:54 AM75.0 °F73.9 °F96 %29.95 in3.0 miNE (40°)23.0 mph29.9 mph0.01 inRainLight Rain
10:33 AM75.2 °F73.4 °F94 %29.97 in6.0 miNE (40°)24.2 mph28.8 mph0.00 inRainLight Rain
10:54 AM75.0 °F73.0 °F94 %29.95 in7.0 miNNE (30°)21.9 mph29.9 mph0.00 inRainLight Rain
11:29 AM75.2 °F73.4 °F94 %29.96 in6.0 miNE (40°)23.0 mph35.7 mph0.00 inRainLight Rain
11:37 AM75.2 °F73.4 °F94 %29.96 in5.0 miNE (40°)21.9 mph27.6 mph0.00 inRainLight Rain
11:54 AM75.9 °F73.9 °F94 %29.94 in6.0 miNE (40°)23.0 mph29.9 mph0.00 inRainLight Rain
12:54 PM77.0 °F73.0 °F88 %29.91 in7.0 miNE (40°)23.0 mph32.2 mph0.00 inRainLight Rain
1:01 PM77.0 °F73.4 °F89 %29.93 in10.0 miNE (40°)20.7 mph33.4 mph0.00 inRainLight Rain
1:54 PM78.1 °F72.0 °F81 %29.88 in8.0 miNE (40°)16.1 mph25.3 mph0.00 inRainLight Rain
2:32 PM78.8 °F71.6 °F78 %29.89 in10.0 miNE (40°)20.7 mph34.5 mphOvercast
2:54 PM79.0 °F71.1 °F77 %29.86 in10.0 miNE (40°)21.9 mph31.1 mphOvercast
3:39 PM78.8 °F71.6 °F78 %29.88 in10.0 miNNE (30°)23.0 mph34.5 mphOvercast
3:54 PM79.0 °F71.1 °F77 %29.87 in10.0 miNE (40°)25.3 mph31.1 mphOvercast
4:01 PM78.8 °F71.6 °F78 %29.89 in10.0 miNE (40°)21.9 mph31.1 mphOvercast
4:54 PM78.1 °F70.0 °F76 %29.88 in10.0 miNE (40°)21.9 mph28.8 mphOvercast
5:54 PM78.1 °F70.0 °F76 %29.90 in10.0 miNE (40°)18.4 mph27.6 mphOvercast
6:54 PM75.9 °F71.1 °F85 %29.92 in10.0 miNE (40°)15.0 mph24.2 mph0.00 inRainLight Rain
7:54 PM75.0 °F72.0 °F90 %29.93 in10.0 miNE (40°)19.6 mph26.5 mph0.00 inOvercast
8:54 PM75.9 °F71.1 °F85 %29.95 in10.0 miNE (40°)23.0 mph31.1 mphOvercast
9:54 PM75.9 °F70.0 °F82 %29.95 in10.0 miNE (40°)16.1 mphOvercast
10:13 PM75.2 °F71.6 °F89 %29.97 in9.0 miNE (50°)18.4 mph27.6 mphOvercast
10:21 PM75.2 °F71.6 °F89 %29.97 in10.0 miNE (40°)12.7 mphOvercast
10:54 PM77.0 °F70.0 °F79 %29.94 in10.0 miNE (40°)18.4 mphOvercast
11:54 PM75.9 °F71.1 °F85 %29.94 in8.0 miNE (50°)23.0 mph28.8 mph0.00 inRainLight Rain
Hourly data recorded from PGUM, located miles away from Potts Junction, Guam







STORIES FROM OUR PARTNERS